Preview of NWS' New Version of Forecast
This preview is not operational and should not be used for support decisions.

Regional Weather Roundup (RWR)

Issued by Lake Charles, LA (LCH)

                            
000
ASUS44 KLCH 200910
RWRLCH
REGIONAL WEATHER ROUNDUP
NATIONAL WEATHER SERVICE LAKE CHARLES LA
300 AM CST WED FEB 20 2019

Note: "fair" indicates few or no clouds below 12,000 feet with no
significant weather and/or obstructions to visibility.


ACROSS SOUTHEAST TEXAS
  
CITY           SKY/WX    TMP DP  RH WIND       PRES   REMARKS
BEAUMONT       LGT RAIN  53  51  93 NW9       29.83R FOG              
BEAUMONT CITY  NOT AVBL                                               
ORANGE         CLOUDY    53  53 100 NW5       29.85R FOG              
JASPER         DRIZZLE   40  40 100 NW8       29.89R                  
$$

ACROSS CENTRAL LOUISIANA
  
CITY           SKY/WX    TMP DP  RH WIND       PRES   REMARKS
LEESVILLE      CLOUDY    48  48  98 NW10      29.83R FOG              
FULLERTON      LGT RAIN  51  51 100 VRB3      29.79S FOG              
ALEXANDRIA INT LGT RAIN  49  49 100 NW8       29.80S FOG              
ESLER FIELD    NOT AVBL                                               
DERIDDER       FOG       50  49  95 NW6       29.85R VSB 3/4          
OAKDALE        CLOUDY    70  69  96 S9        29.79F FOG              
OPELOUSAS      LGT RAIN  70  69  98 S14G20    29.81F                  
$$

ACROSS SOUTHWEST AND SOUTH CENTRAL LOUISIANA
  
CITY           SKY/WX    TMP DP  RH WIND       PRES   REMARKS
DEQUINCY       FOG       52  51  97 NW5       29.83S VSB 3/4          
SULPHUR        FOG       58  58 100 NW6       29.83R VSB 1/2          
LAKE CHARLES     N/A    N/A N/A N/A MISG      29.81S                  
CHENNAULT INT  CLOUDY    67  67  99 SW8       29.81S                  
CAMERON PHI    FOG       63  63 100 S8        29.80F VSB 0            
GRAND CHENIER  FOG       70  70 100 S16       29.81S VSB 3/4          
JENNINGS       CLOUDY    70  69  98 S9        29.81F FOG              
LAFAYETTE      CLOUDY    72  71  97 S12G21    29.83F                  
NEW IBERIA     LGT RAIN  71  70  96 S16G25    29.84F                  
ABBEVILLE      CLOUDY    69  69 100 SE14G21   29.83F FOG              
PATTERSON      CLOUDY    71  70  96 S15       29.87F                  
SALT POINT       N/A    N/A N/A N/A SE7       29.85S                  
$$

SELECTED SITES ACROSS THE REGION
  
CITY           SKY/WX    TMP DP  RH WIND       PRES   REMARKS
HOUSTON BUSH   LGT RAIN  46  46 100 NW7       29.90R FOG              
HOUSTON HOBBY  DRIZZLE   47  45  93 NW10      29.89R                  
GALVESTON      CLOUDY    50  47  89 NW16G25   29.87R                  
COLLEGE STAT   CLOUDY    42  42 100 NW7       29.93R                  
CONROE         CLOUDY    44  44 100 NW8       29.91R                  
HUNTSVILLE     CLOUDY    41  41 100 NW6       29.91R                  
LUFKIN         LGT RAIN  40  40 100 NW5       29.89S                  
SHREVEPORT     NOT AVBL                                               
MONROE         LGT RAIN  46  45  96 N7        29.83F FOG              
NATCHEZ MS     CLOUDY    70  66  88 S17       29.80F                  
BATON ROUGE    LGT RAIN  72  70  93 S13G24    29.85F                  
N.O. INTL ARPT FOG       71  71 100 S12       29.90F VSB 3/4          
SLIDELL        CLOUDY    69  67  93 S12       29.91F FOG              
$$

MARINE REPORTS
  
STATION/POSITION TIME  SKY/WX   TEMP    WIND        PRES    VSBY
                                AIR SEA DIR/SP/G
                 (UTC)          (F)     (DEG/KT/KT) (MB)    (MI)
BUOY 30 S HIGH I 0850            55 61  320/ 16/ 17 1010.7S
WVE H/P(F/S)=  3/ 7

SEA RIM ST PARK  0900            53     320/  9/ 10 1010.2R
PORT ARTHUR      0842            54 57  330/  5/  8 1010.1S
SABINE PASS N    0842            55 60  300/  5/  6 1011.3F
TEXAS POINT      NOT AVBL
CALCASIEU PASS   0842            62 58  220/  7/  8 1008.3F
LK CHARLES BEACH 0842            66 58              1009.1S
MARSH ISLAND     0800            65                   N/A
FRESH WATER LOCK 0842            66 59  160/ 11/ 15 1010.3F
AMERADA PASS     0842            69 53  140/  6/ 10 1011.5F
$$